TimeMST,TemperatureF,Dew PointF,Humidity,Sea Level PressureIn,VisibilityMPH,Wind Direction,Wind SpeedMPH,Gust SpeedMPH,PrecipitationIn,Events,Conditions,WindDirDegrees,DateUTC
12:53 AM,32.0,30.9,96,30.04,4.0,NNW,5.8,-,0.00,Snow,Light Snow,340,2013-11-05 07:53:00
1:01 AM,32.0,30.2,93,30.03,4.0,North,4.6,-,0.00,Snow,Light Snow,350,2013-11-05 08:01:00
1:17 AM,32.0,30.2,93,30.04,7.0,NNW,5.8,-,0.00,Snow,Light Snow,340,2013-11-05 08:17:00
1:43 AM,32.0,30.2,93,30.04,4.0,NW,8.1,-,0.00,Snow,Light Snow,310,2013-11-05 08:43:00
1:51 AM,30.2,30.2,100,30.04,1.8,WNW,8.1,-,0.00,Snow,Light Snow,300,2013-11-05 08:51:00
1:52 AM,30.9,30.9,100,30.05,1.8,WNW,8.1,-,0.00,Snow,Light Snow,300,2013-11-05 08:52:00
1:59 AM,30.2,30.2,100,30.05,2.5,WNW,6.9,-,0.01,Snow,Light Snow,300,2013-11-05 08:59:00
2:05 AM,30.2,30.2,100,30.05,4.0,WNW,6.9,-,0.01,Snow,Light Snow,290,2013-11-05 09:05:00
2:17 AM,30.2,30.2,100,30.05,6.0,WNW,9.2,-,0.01,Snow,Light Snow,300,2013-11-05 09:17:00
2:53 AM,30.9,30.0,96,30.06,10.0,NW,5.8,-,0.01,,Overcast,320,2013-11-05 09:53:00
3:53 AM,30.9,30.0,96,30.07,10.0,Calm,Calm,-,N/A,,Overcast,0,2013-11-05 10:53:00
4:53 AM,30.9,30.0,96,30.09,10.0,Calm,Calm,-,N/A,,Overcast,0,2013-11-05 11:53:00
5:53 AM,30.0,28.9,96,30.12,10.0,Calm,Calm,-,N/A,,Overcast,0,2013-11-05 12:53:00
6:53 AM,30.0,28.0,92,30.15,10.0,Calm,Calm,-,N/A,,Mostly Cloudy,0,2013-11-05 13:53:00
7:53 AM,32.0,27.0,82,30.17,10.0,NNW,4.6,-,N/A,,Scattered Clouds,330,2013-11-05 14:53:00
8:53 AM,33.1,24.1,70,30.21,10.0,WNW,8.1,-,N/A,,Partly Cloudy,300,2013-11-05 15:53:00
9:53 AM,36.0,17.1,46,30.22,10.0,WNW,4.6,-,N/A,,Partly Cloudy,300,2013-11-05 16:53:00
10:53 AM,37.9,17.1,43,30.22,10.0,NNW,5.8,-,N/A,,Partly Cloudy,330,2013-11-05 17:53:00
11:53 AM,37.9,15.1,39,30.22,10.0,Variable,3.5,-,N/A,,Scattered Clouds,0,2013-11-05 18:53:00
12:53 PM,39.9,15.1,36,30.19,10.0,NW,10.4,16.1,N/A,,Partly Cloudy,310,2013-11-05 19:53:00
1:53 PM,41.0,12.9,32,30.19,10.0,WNW,5.8,-,N/A,,Clear,300,2013-11-05 20:53:00
2:53 PM,41.0,12.9,32,30.20,10.0,WNW,8.1,-,N/A,,Clear,300,2013-11-05 21:53:00
3:53 PM,41.0,10.9,29,30.22,10.0,WNW,5.8,-,N/A,,Clear,290,2013-11-05 22:53:00
4:53 PM,39.9,12.9,33,30.23,10.0,West,3.5,-,N/A,,Clear,270,2013-11-05 23:53:00
5:53 PM,30.9,23.0,72,30.28,10.0,Calm,Calm,-,N/A,,Clear,0,2013-11-06 00:53:00
6:53 PM,30.9,21.0,67,30.30,10.0,ENE,3.5,-,N/A,,Clear,60,2013-11-06 01:53:00
7:53 PM,28.0,21.0,75,30.33,10.0,Calm,Calm,-,N/A,,Clear,0,2013-11-06 02:53:00
8:53 PM,30.0,19.0,64,30.35,10.0,ENE,5.8,-,N/A,,Clear,70,2013-11-06 03:53:00
9:53 PM,28.0,19.0,69,30.37,10.0,ESE,6.9,-,N/A,,Clear,120,2013-11-06 04:53:00
10:53 PM,27.0,19.0,72,30.37,10.0,East,3.5,-,N/A,,Clear,100,2013-11-06 05:53:00
11:53 PM,26.1,19.0,75,30.38,10.0,SE,3.5,-,N/A,,Clear,130,2013-11-06 06:53:00